User: anonymous   Login
Location: Prairie Dale
(45.6972°N, 104.5033°W)
Time: 09:47:28
(UTC+00:00)
Language:

METEOR 2-5 DEB - Orbit

View from above orbital plane
View from above orbital plane
View from above satellite
View from above satellite

Ground track
Ground track

The orbit data is extracted from the following two-line orbital elements,

1 36913U 79095BE  22332.75474664  .00013150  00000-0  22030-2 0  9996
2 36913  81.1914 344.1120 0016075  66.8212 293.4683 14.69618089 30692
Epoch (UTC): 28 November 2022 18:06:50
Eccentricity: 0.0016075
inclination: 81.1914°
perigee height: 651 km
apogee height: 673 km
right ascension of ascending node: 344.1120°
argument of perigee: 66.8212°
revolutions per day: 14.69618089
mean anomaly at epoch: 293.4683°
orbit number at epoch: 3069

The dashed part of the orbit path shows where the satellite is in the earth's shadow,  

DLR